This demonstration page uses our WeatherBlox Daily Observations layout. Learn more.

Left ArrowRight Arrow

Hourly Observations for January 17, 2022

Temp ( °F °C ) Dew Point ( °F °C ) Humidity (%) Winds ( mph kmh ) Pressure ( in mb ) Visibility ( mi km ) Precip ( " mm )
12:15 am 00:15 Clear 20 -6.6 17 -8.4 87 87 NW 8 13 30.22 1024 10 16 0.00 0.00
12:35 am 00:35 Clear 22 -5.6 18 -8 83 83 NW 8 13 30.20 1023 10 16 0.00 0.00
12:55 am 00:55 Clear 20 -6.7 16 -8.8 85 85 W 7 11 30.22 1023 10 16 0.00 0.00
1:15 am 01:15 Clear 20 -6.4 17 -8.3 87 87 NW 3 6 30.21 1023 10 16 0.00 0.00
1:35 am 01:35 Clear 20 -6.6 17 -8.5 87 87 WNW 6 9 30.22 1024 10 16 0.00 0.00
1:55 am 01:55 Clear 20 -6.6 17 -8.5 87 87 WNW 6 9 30.21 1023 10 16 0.00 0.00
2:15 am 02:15 Clear 20 -6.9 16 -8.9 86 86 NW 7 11 30.22 1023 10 16 0.00 0.00
2:35 am 02:35 Clear 18 -7.6 15 -9.3 88 88 NW 6 9 30.23 1024 10 16 0.00 0.00
2:55 am 02:55 Clear 18 -7.7 15 -9.3 88 88 NW 6 9 30.22 1023 10 16 0.00 0.00
3:15 am 03:15 Clear 18 -8 15 -9.5 89 89 NW 7 11 30.22 1023 10 16 0.00 0.00
3:35 am 03:35 Clear 18 -7.8 15 -9.5 88 88 NW 6 9 30.21 1023 10 16 0.00 0.00
3:55 am 03:55 Clear 17 -8.3 14 -10 88 88 NW 5 7 30.21 1023 10 16 0.00 0.00
4:15 am 04:15 Clear 17 -8.1 14 -9.8 88 88 W 3 6 30.19 1022 10 16 0.00 0.00
4:35 am 04:35 Clear 18 -8 15 -9.7 88 88 W 5 7 30.18 1022 10 16 0.00 0.00
4:55 am 04:55 Clear 17 -8.4 14 -10.1 88 88 W 5 7 30.17 1022 10 16 0.00 0.00
5:15 am 05:15 Clear 17 -8.1 15 -9.7 88 88 SW 6 9 30.15 1021 10 16 0.00 0.00
5:35 am 05:35 Clear 19 -7.5 16 -9.1 88 88 WSW 3 6 30.15 1021 10 16 0.00 0.00
5:55 am 05:55 Clear 19 -7.5 15 -9.2 88 88 Calm 30.14 1021 10 16 0.00 0.00
6:15 am 06:15 Clear 20 -6.9 16 -8.9 86 86 Calm 30.13 1020 10 16 0.00 0.00
6:35 am 06:35 Clear 20 -6.5 17 -8.6 85 85 Calm 30.12 1020 10 16 0.00 0.00
6:55 am 06:55 Clear 20 -6.5 17 -8.5 86 86 Calm 30.12 1020 10 16 0.00 0.00
7:15 am 07:15 Clear 19 -7.4 15 -9.4 86 86 Calm 30.12 1020 10 16 0.00 0.00
7:35 am 07:35 Clear 19 -7.1 16 -8.9 87 87 Calm 30.11 1020 10 16 0.00 0.00
7:55 am 07:55 Clear 18 -7.8 15 -9.6 87 87 Calm 30.13 1020 10 16 0.00 0.00
8:15 am 08:15 Sunny 17 -8.3 14 -10.2 86 86 Calm 30.13 1020 7 11 0.00 0.00
8:35 am 08:35 Sunny 19 -7.4 15 -9.2 87 87 SW 7 11 30.11 1020 10 16 0.00 0.00
8:55 am 08:55 Sunny 22 -5.4 19 -7 89 89 SSW 3 6 30.08 1019 10 16 0.00 0.00
9:15 am 09:15 Sunny 27 -2.7 23 -5 84 84 Calm 30.05 1018 10 16 0.00 0.00
9:35 am 09:35 Sunny 29 -1.4 25 -4 83 83 Calm 30.03 1017 10 16 0.00 0.00
9:55 am 09:55 Sunny 35 1.7 26 -3.5 69 69 WSW 9 15 30.00 1016 10 16 0.00 0.00
10:15 am 10:15 Sunny 37 2.6 26 -3.4 65 65 WSW 12 19 29.98 1015 10 16 0.00 0.00
10:35 am 10:35 Sunny 39 4 26 -3.5 58 58 WSW 13 20 29.97 1015 10 16 0.00 0.00
10:55 am 10:55 Sunny 40 4.5 26 -3.6 56 56 WSW 12 19 29.95 1014 10 16 0.00 0.00
11:15 am 11:15 Sunny 41 4.9 25 -3.7 54 54 WSW 12 19 29.95 1014 10 16 0.00 0.00
11:35 am 11:35 Sunny 42 5.4 26 -3.5 53 53 WSW 10 17 29.93 1014 10 16 0.00 0.00
11:55 am 11:55 Sunny 44 6.4 26 -3.4 50 50 WSW 10 17 29.91 1013 10 16 0.00 0.00
12:15 pm 12:15 Sunny 46 7.7 26 -3.2 46 46 W 12 19 29.88 1012 10 16 0.00 0.00
12:35 pm 12:35 Sunny 47 8.4 26 -3.4 44 44 WSW 9 15 29.87 1011 10 16 0.00 0.00
12:55 pm 12:55 Sunny 49 9.5 26 -3.4 40 40 W 9 15 29.85 1011 10 16 0.00 0.00
1:15 pm 13:15 Sunny 51 10.5 26 -3.4 38 38 WSW 10 17 29.84 1010 10 16 0.00 0.00
1:35 pm 13:35 Sunny 52 11.1 26 -3.6 36 36 W 9 15 29.81 1010 10 16 0.00 0.00
1:55 pm 13:55 Sunny 54 12.1 26 -3.5 34 34 W 10 17 29.78 1009 10 16 0.00 0.00
2:15 pm 14:15 Sunny 55 12.8 26 -3.3 33 33 W 9 15 29.77 1008 10 16 0.00 0.00
2:35 pm 14:35 Sunny 56 13.4 26 -3.3 31 31 W 7 11 29.76 1008 10 16 0.00 0.00
2:55 pm 14:55 Sunny 57 14 26 -3.3 30 30 W 8 13 29.76 1008 10 16 0.00 0.00
3:15 pm 15:15 Sunny 59 14.8 26 -3.1 29 29 W 7 11 29.75 1007 10 16 0.00 0.00
3:35 pm 15:35 Sunny 59 15.1 26 -3.3 28 28 W 8 13 29.75 1007 10 16 0.00 0.00
3:55 pm 15:55 Sunny 59 15.1 26 -3.4 28 28 W 7 11 29.75 1007 10 16 0.00 0.00
4:15 pm 16:15 Sunny 59 15 26 -3.4 28 28 W 7 11 29.75 1007 10 16 0.00 0.00
4:35 pm 16:35 Sunny 57 14.1 26 -3.5 30 30 W 7 11 29.74 1007 10 16 0.00 0.00
4:55 pm 16:55 Sunny 56 13.4 26 -3.5 31 31 W 7 11 29.75 1007 10 16 0.00 0.00
5:15 pm 17:15 Sunny 53 11.7 25 -3.7 34 34 W 7 11 29.78 1008 10 16 0.00 0.00
5:35 pm 17:35 Sunny 51 10.3 25 -3.9 37 37 WSW 5 7 29.79 1009 10 16 0.00 0.00
5:55 pm 17:55 Clear 45 7.4 23 -5 41 41 WSW 5 7 29.82 1010 10 16 0.00 0.00
6:15 pm 18:15 Clear 45 7.2 25 -4.1 45 45 W 7 11 29.82 1010 10 16 0.00 0.00
6:35 pm 18:35 Clear 40 4.4 23 -4.9 51 51 W 7 11 29.84 1011 10 16 0.00 0.00
6:55 pm 18:55 Clear 40 4.4 22 -5.3 50 50 W 6 9 29.85 1011 10 16 0.00 0.00
7:15 pm 19:15 Clear 34 0.9 20 -6.6 58 58 N 3 6 29.89 1012 10 16 0.00 0.00
7:35 pm 19:35 Clear 36 2 21 -6.1 55 55 N 5 7 29.89 1012 10 16 0.00 0.00
7:55 pm 19:55 Clear 34 0.9 19 -7 56 56 NNW 3 6 29.90 1012 10 16 0.00 0.00
8:15 pm 20:15 Clear 32 0 20 -6.4 62 62 NW 6 9 29.91 1013 10 16 0.00 0.00
8:35 pm 20:35 Clear 31 -0.5 20 -6.6 64 64 WNW 3 6 29.91 1013 7 11 0.00 0.00
8:55 pm 20:55 Clear 30 -1.1 20 -6.6 67 67 Calm 29.92 1013 7 11 0.00 0.00
9:15 pm 21:15 Clear 31 -0.5 22 -5.6 69 69 NW 3 6 29.90 1013 10 16 0.00 0.00
9:35 pm 21:35 Clear 29 -1.4 20 -6.8 67 67 WNW 5 7 29.91 1013 7 11 0.00 0.00
9:55 pm 21:55 Clear 26 -3.2 18 -7.7 71 71 WNW 6 9 29.93 1013 7 11 0.00 0.00
10:15 pm 22:15 Clear 28 -2.5 19 -7 72 72 WNW 7 11 29.92 1013 10 16 0.00 0.00
10:35 pm 22:35 Clear 28 -2.5 19 -7 72 72 WNW 6 9 29.91 1013 10 16 0.00 0.00
10:55 pm 22:55 Clear 28 -2.2 20 -6.4 73 73 NW 5 7 29.90 1012 10 16 0.00 0.00
11:15 pm 23:15 Clear 27 -2.8 19 -7.1 73 73 NW 7 11 29.90 1013 10 16 0.00 0.00
11:35 pm 23:35 Clear 28 -2.4 20 -6.5 74 74 WNW 5 7 29.91 1013 10 16 0.00 0.00
11:55 pm 23:55 Clear 26 -3.5 19 -7.1 76 76 NW 7 11 29.91 1013 10 16 0.00 0.00

Powered by AerisWeather